Time,TemperatureF,DewpointF,PressureIn,WindDirection,WindDirectionDegrees,WindSpeedMPH,WindSpeedGustMPH,Humidity,HourlyPrecipIn,Conditions,Clouds,dailyrainin,SoftwareType,DateUTC
2011-07-07 04:52:00,73.9,52.3,30.04,NW,315,0.0,3.6,47,0.00,,,0.00,open2300-1.11,2011-07-07 10:52:00,
2011-07-07 06:23:00,73.2,52.2,30.04,NNW,337,0.0,0.0,48,0.00,,,0.00,open2300-1.11,2011-07-07 12:23:00,
2011-07-07 06:33:00,72.9,52.5,30.04,NNW,337,0.0,0.0,49,0.00,,,0.00,open2300-1.11,2011-07-07 12:33:00,
2011-07-07 06:43:00,72.7,52.4,30.04,SW,225,0.0,0.0,49,0.00,,,0.00,open2300-1.11,2011-07-07 12:43:00,
2011-07-07 06:53:00,72.7,53.0,30.04,SW,225,0.0,0.0,50,0.00,,,0.00,open2300-1.11,2011-07-07 12:53:00,
2011-07-07 07:03:00,72.5,53.3,30.04,SW,225,0.0,0.0,51,0.00,,,0.00,open2300-1.11,2011-07-07 13:03:00,
2011-07-07 07:13:00,72.3,53.6,30.04,SW,225,0.0,0.0,52,0.00,,,0.00,open2300-1.11,2011-07-07 13:13:00,
2011-07-07 07:23:00,72.3,53.6,30.04,SW,225,0.0,0.0,52,0.00,,,0.00,open2300-1.11,2011-07-07 13:23:00,
2011-07-07 07:33:00,72.5,53.3,30.04,East,90,0.0,0.0,51,0.00,,,0.00,open2300-1.11,2011-07-07 13:33:00,
2011-07-07 07:43:00,72.3,53.1,30.04,ESE,112,0.0,0.0,51,0.00,,,0.00,open2300-1.11,2011-07-07 13:43:00,
2011-07-07 07:53:00,72.7,54.0,30.05,SE,135,0.0,0.0,52,0.00,,,0.00,open2300-1.11,2011-07-07 13:53:00,
2011-07-07 08:03:00,72.7,53.5,30.05,SE,135,0.0,2.0,51,0.00,,,0.00,open2300-1.11,2011-07-07 14:03:00,
2011-07-07 08:13:00,73.0,53.3,30.06,South,180,4.7,4.7,50,0.00,,,0.00,open2300-1.11,2011-07-07 14:13:00,
2011-07-07 08:23:00,73.2,53.4,30.06,ENE,67,0.0,4.7,50,0.00,,,0.00,open2300-1.11,2011-07-07 14:23:00,
2011-07-07 08:33:00,74.1,54.3,30.05,NE,45,3.6,5.6,50,0.00,,,0.00,open2300-1.11,2011-07-07 14:33:00,
2011-07-07 08:43:00,75.0,54.6,30.05,South,180,0.0,3.6,49,0.00,,,0.00,open2300-1.11,2011-07-07 14:43:00,
2011-07-07 08:53:00,75.6,54.5,30.04,ENE,67,1.6,1.6,48,0.00,,,0.00,open2300-1.11,2011-07-07 14:53:00,
2011-07-07 09:03:00,76.3,53.9,30.04,SSE,157,0.0,5.4,46,0.00,,,0.00,open2300-1.11,2011-07-07 15:03:00,
2011-07-07 09:13:00,76.5,54.1,30.04,East,90,0.0,3.8,46,0.00,,,0.00,open2300-1.11,2011-07-07 15:13:00,
2011-07-07 09:23:00,77.4,54.3,30.03,South,180,0.0,0.0,45,0.00,,,0.00,open2300-1.11,2011-07-07 15:23:00,
2011-07-07 09:33:00,78.1,53.7,30.04,SSE,157,0.0,0.0,43,0.00,,,0.00,open2300-1.11,2011-07-07 15:33:00,
2011-07-07 09:43:00,78.6,53.6,30.04,SSE,157,0.0,0.0,42,0.00,,,0.00,open2300-1.11,2011-07-07 15:43:00,
2011-07-07 09:53:00,79.0,53.9,30.04,ESE,112,0.0,0.0,42,0.00,,,0.00,open2300-1.11,2011-07-07 15:53:00,
2011-07-07 10:03:00,79.0,53.3,30.03,East,90,0.0,0.7,41,0.00,,,0.00,open2300-1.11,2011-07-07 16:03:00,
2011-07-07 10:13:00,79.3,53.6,30.03,SE,135,0.0,1.6,41,0.00,,,0.00,open2300-1.11,2011-07-07 16:13:00,
2011-07-07 10:23:00,79.9,53.5,30.03,SSW,202,0.0,0.0,40,0.00,,,0.00,open2300-1.11,2011-07-07 16:23:00,
2011-07-07 10:33:00,81.0,53.7,30.03,SSW,202,1.3,1.6,39,0.00,,,0.00,open2300-1.11,2011-07-07 16:33:00,
2011-07-07 10:43:00,81.3,54.0,30.03,SSW,202,0.0,1.3,39,0.00,,,0.00,open2300-1.11,2011-07-07 16:43:00,
2011-07-07 10:53:00,82.0,53.1,30.03,South,180,0.0,0.0,37,0.00,,,0.00,open2300-1.11,2011-07-07 16:53:00,
2011-07-07 11:03:00,83.1,53.2,30.02,WSW,247,0.0,0.0,36,0.00,,,0.00,open2300-1.11,2011-07-07 17:03:00,
2011-07-07 11:13:00,83.7,53.7,30.03,West,270,5.8,5.8,36,0.00,,,0.00,open2300-1.11,2011-07-07 17:13:00,
2011-07-07 11:23:00,84.0,55.6,30.03,WSW,247,0.0,6.5,38,0.00,,,0.00,open2300-1.11,2011-07-07 17:23:00,
2011-07-07 11:33:00,84.6,56.1,30.02,WNW,292,0.0,0.0,38,0.00,,,0.00,open2300-1.11,2011-07-07 17:33:00,
2011-07-07 11:43:00,84.7,56.3,30.02,NW,315,0.4,1.6,38,0.00,,,0.00,open2300-1.11,2011-07-07 17:43:00,
2011-07-07 11:53:00,85.3,56.0,30.02,NW,315,0.0,2.5,37,0.00,,,0.00,open2300-1.11,2011-07-07 17:53:00,
2011-07-07 12:03:00,85.8,57.2,30.02,NNE,22,0.0,0.0,38,0.00,,,0.00,open2300-1.11,2011-07-07 18:03:00,
2011-07-07 12:13:00,86.5,57.1,30.02,WSW,247,0.0,4.5,37,0.00,,,0.00,open2300-1.11,2011-07-07 18:13:00,
2011-07-07 12:23:00,85.5,55.3,30.02,WNW,292,0.0,3.1,36,0.00,,,0.00,open2300-1.11,2011-07-07 18:23:00,
2011-07-07 12:33:00,84.4,55.2,30.01,NW,315,0.0,1.8,37,0.00,,,0.00,open2300-1.11,2011-07-07 18:33:00,
2011-07-07 12:43:00,83.8,54.7,30.01,WNW,292,0.0,2.5,37,0.00,,,0.00,open2300-1.11,2011-07-07 18:43:00,
2011-07-07 12:53:00,84.0,54.8,30.01,ENE,67,0.0,6.0,37,0.00,,,0.00,open2300-1.11,2011-07-07 18:53:00,
2011-07-07 13:03:00,86.2,55.2,30.00,WNW,292,0.0,4.9,35,0.00,,,0.00,open2300-1.11,2011-07-07 19:03:00,
2011-07-07 13:13:00,87.4,55.5,30.00,NNW,337,5.8,5.8,34,0.00,,,0.00,open2300-1.11,2011-07-07 19:13:00,
2011-07-07 13:23:00,88.7,54.9,29.99,WNW,292,6.3,6.3,32,0.00,,,0.00,open2300-1.11,2011-07-07 19:23:00,
2011-07-07 13:33:00,89.4,52.9,29.99,WSW,247,1.1,6.3,29,0.00,,,0.00,open2300-1.11,2011-07-07 19:33:00,
2011-07-07 13:43:00,90.0,53.4,29.98,WNW,292,5.6,5.6,29,0.00,,,0.00,open2300-1.11,2011-07-07 19:43:00,
2011-07-07 13:53:00,90.1,52.5,29.98,NNW,337,0.0,5.6,28,0.00,,,0.00,open2300-1.11,2011-07-07 19:53:00,
2011-07-07 14:03:00,90.5,53.8,29.97,WNW,292,0.0,4.7,29,0.00,,,0.00,open2300-1.11,2011-07-07 20:03:00,
2011-07-07 14:13:00,90.7,52.9,29.97,North,0,5.1,5.1,28,0.00,,,0.00,open2300-1.11,2011-07-07 20:13:00,
2011-07-07 14:23:00,91.0,54.3,29.97,NW,315,0.0,5.1,29,0.00,,,0.00,open2300-1.11,2011-07-07 20:23:00,
2011-07-07 14:33:00,91.6,53.7,29.97,ENE,67,0.0,4.0,28,0.00,,,0.00,open2300-1.11,2011-07-07 20:33:00,
2011-07-07 14:43:00,91.9,52.9,29.97,NW,315,1.1,6.7,27,0.00,,,0.00,open2300-1.11,2011-07-07 20:43:00,
2011-07-07 14:53:00,92.1,53.0,29.97,WNW,292,0.0,4.9,27,0.00,,,0.00,open2300-1.11,2011-07-07 20:53:00,
2011-07-07 15:03:00,92.5,53.3,29.96,West,270,0.0,0.0,27,0.00,,,0.00,open2300-1.11,2011-07-07 21:03:00,
2011-07-07 15:13:00,92.8,53.6,29.96,WNW,292,4.9,4.9,27,0.00,,,0.00,open2300-1.11,2011-07-07 21:13:00,
2011-07-07 15:23:00,93.0,52.7,29.94,WNW,292,0.2,4.9,26,0.00,,,0.00,open2300-1.11,2011-07-07 21:23:00,
2011-07-07 15:33:00,93.0,51.6,29.94,West,270,5.8,5.8,25,0.00,,,0.00,open2300-1.11,2011-07-07 21:33:00,
2011-07-07 15:43:00,93.0,52.7,29.94,WNW,292,0.0,5.8,26,0.00,,,0.00,open2300-1.11,2011-07-07 21:43:00,
2011-07-07 15:53:00,93.4,53.0,29.94,North,0,0.7,4.2,26,0.00,,,0.00,open2300-1.11,2011-07-07 21:53:00,
2011-07-07 16:03:00,93.7,52.2,29.94,NW,315,2.2,2.2,25,0.00,,,0.00,open2300-1.11,2011-07-07 22:03:00,
2011-07-07 16:13:00,93.4,51.8,29.93,WNW,292,0.0,6.5,25,0.00,,,0.00,open2300-1.11,2011-07-07 22:13:00,
2011-07-07 16:23:00,93.2,51.7,29.93,NW,315,4.0,4.0,25,0.00,,,0.00,open2300-1.11,2011-07-07 22:23:00,
2011-07-07 16:33:00,93.4,51.8,29.92,WSW,247,0.0,4.0,25,0.00,,,0.00,open2300-1.11,2011-07-07 22:33:00,
2011-07-07 16:43:00,93.4,51.8,29.92,WSW,247,1.8,1.8,25,0.00,,,0.00,open2300-1.11,2011-07-07 22:43:00,
2011-07-07 16:53:00,93.0,51.6,29.92,WSW,247,0.0,1.8,25,0.00,,,0.00,open2300-1.11,2011-07-07 22:53:00,
2011-07-07 17:03:00,93.0,51.6,29.91,WSW,247,0.0,3.4,25,0.00,,,0.00,open2300-1.11,2011-07-07 23:03:00,
2011-07-07 17:13:00,92.8,51.4,29.91,NW,315,2.7,4.0,25,0.00,,,0.00,open2300-1.11,2011-07-07 23:13:00,
2011-07-07 17:23:00,92.1,50.8,29.91,NNW,337,0.0,4.0,25,0.00,,,0.00,open2300-1.11,2011-07-07 23:23:00,
2011-07-07 17:33:00,91.6,50.4,29.90,WNW,292,0.0,0.0,25,0.00,,,0.00,open2300-1.11,2011-07-07 23:33:00,
2011-07-07 17:43:00,91.2,50.1,29.90,South,180,0.0,0.0,25,0.00,,,0.00,open2300-1.11,2011-07-07 23:43:00,
2011-07-07 17:53:00,90.9,50.9,29.89,NW,315,0.0,0.0,26,0.00,,,0.00,open2300-1.11,2011-07-07 23:53:00,
2011-07-07 18:03:00,90.1,50.3,29.89,NW,315,0.0,0.0,26,0.00,,,0.00,open2300-1.11,2011-07-08 00:03:00,
2011-07-07 18:13:00,89.8,50.0,29.89,WNW,292,0.0,0.0,26,0.00,,,0.00,open2300-1.11,2011-07-08 00:13:00,
2011-07-07 18:23:00,89.4,50.7,29.89,West,270,0.0,2.0,27,0.00,,,0.00,open2300-1.11,2011-07-08 00:23:00,
2011-07-07 18:33:00,89.2,48.4,29.89,West,270,0.0,0.0,25,0.00,,,0.00,open2300-1.11,2011-07-08 00:33:00,
2011-07-07 18:43:00,88.9,49.2,29.89,WSW,247,0.0,0.0,26,0.00,,,0.00,open2300-1.11,2011-07-08 00:43:00,
2011-07-07 18:53:00,88.9,49.2,29.89,West,270,0.0,0.0,26,0.00,,,0.00,open2300-1.11,2011-07-08 00:53:00,
2011-07-07 19:03:00,88.5,48.9,29.89,SW,225,0.0,1.8,26,0.00,,,0.00,open2300-1.11,2011-07-08 01:03:00,
2011-07-07 19:13:00,88.0,49.5,29.89,WSW,247,0.0,0.0,27,0.00,,,0.00,open2300-1.11,2011-07-08 01:13:00,
2011-07-07 19:23:00,87.8,49.3,29.89,WNW,292,0.0,0.0,27,0.00,,,0.00,open2300-1.11,2011-07-08 01:23:00,
2011-07-07 19:33:00,87.6,49.2,29.89,WSW,247,0.0,0.0,27,0.00,,,0.00,open2300-1.11,2011-07-08 01:33:00,
2011-07-07 19:43:00,87.1,48.7,29.89,SW,225,0.0,2.7,27,0.00,,,0.00,open2300-1.11,2011-07-08 01:43:00,
2011-07-07 19:53:00,86.5,48.3,29.90,WNW,292,0.0,0.0,27,0.00,,,0.00,open2300-1.11,2011-07-08 01:53:00,
2011-07-07 20:03:00,85.8,48.8,29.90,West,270,0.0,0.0,28,0.00,,,0.00,open2300-1.11,2011-07-08 02:03:00,
2011-07-07 20:13:00,85.3,48.3,29.90,WSW,247,1.8,5.8,28,0.00,,,0.00,open2300-1.11,2011-07-08 02:13:00,
2011-07-07 20:23:00,85.3,48.3,29.91,WSW,247,4.2,4.2,28,0.00,,,0.00,open2300-1.11,2011-07-08 02:23:00,
2011-07-07 20:33:00,84.7,47.8,29.91,WSW,247,0.0,4.2,28,0.00,,,0.00,open2300-1.11,2011-07-08 02:33:00,
2011-07-07 20:43:00,84.4,48.5,29.91,WSW,247,0.0,0.0,29,0.00,,,0.00,open2300-1.11,2011-07-08 02:43:00,
2011-07-07 20:53:00,84.0,48.2,29.93,WSW,247,6.5,6.5,29,0.00,,,0.00,open2300-1.11,2011-07-08 02:53:00,
2011-07-07 21:03:00,83.7,47.9,29.93,West,270,0.0,6.5,29,0.00,,,0.00,open2300-1.11,2011-07-08 03:03:00,
2011-07-07 21:13:00,83.1,48.5,29.94,SW,225,5.4,5.6,30,0.00,,,0.00,open2300-1.11,2011-07-08 03:13:00,
2011-07-07 21:23:00,82.6,48.8,29.94,WSW,247,0.0,5.4,31,0.00,,,0.00,open2300-1.11,2011-07-08 03:23:00,
2011-07-07 21:33:00,82.2,50.0,29.95,SSW,202,6.9,6.9,33,0.00,,,0.00,open2300-1.11,2011-07-08 03:33:00,
2011-07-07 21:43:00,81.7,50.4,29.95,WNW,292,4.5,6.9,34,0.00,,,0.00,open2300-1.11,2011-07-08 03:43:00,
2011-07-07 21:53:00,81.3,50.9,29.96,West,270,0.0,5.8,35,0.00,,,0.00,open2300-1.11,2011-07-08 03:53:00,
2011-07-07 22:03:00,81.0,50.6,29.96,WNW,292,0.0,0.7,35,0.00,,,0.00,open2300-1.11,2011-07-08 04:03:00,
2011-07-07 22:13:00,80.4,50.9,29.96,WSW,247,0.0,4.2,36,0.00,,,0.00,open2300-1.11,2011-07-08 04:13:00,
2011-07-07 22:23:00,80.2,50.7,29.95,WNW,292,0.0,0.0,36,0.00,,,0.00,open2300-1.11,2011-07-08 04:23:00,
2011-07-07 22:33:00,79.9,50.4,29.95,WSW,247,0.0,2.2,36,0.00,,,0.00,open2300-1.11,2011-07-08 04:33:00,
2011-07-07 22:43:00,79.5,50.8,29.95,WSW,247,0.0,0.0,37,0.00,,,0.00,open2300-1.11,2011-07-08 04:43:00,
2011-07-07 22:53:00,79.3,50.7,29.95,SSW,202,3.6,3.6,37,0.00,,,0.00,open2300-1.11,2011-07-08 04:53:00,
2011-07-07 23:03:00,79.2,49.8,29.95,WSW,247,0.0,3.6,36,0.00,,,0.00,open2300-1.11,2011-07-08 05:03:00,
2011-07-07 23:13:00,79.0,50.4,29.95,West,270,0.0,0.0,37,0.00,,,0.00,open2300-1.11,2011-07-08 05:13:00,
2011-07-07 23:23:00,78.6,50.0,29.95,West,270,0.0,0.0,37,0.00,,,0.00,open2300-1.11,2011-07-08 05:23:00,
2011-07-07 23:33:00,78.4,49.9,29.95,West,270,0.0,0.0,37,0.00,,,0.00,open2300-1.11,2011-07-08 05:33:00,
2011-07-07 23:43:00,77.7,50.0,29.95,West,270,0.0,82.3,38,0.00,,,0.00,open2300-1.11,2011-07-08 05:43:00,
2011-07-07 23:53:00,76.8,50.0,29.96,West,270,0.0,0.0,39,0.00,,,0.00,open2300-1.11,2011-07-08 05:53:00,